Cherokee Lake Weather Center

Moon Phase Calendar



Cherokee Lake Water Level
Online Cameras

 


      

Current Conditions in Morristown
7/17/2024 9:43:41 AM

78°F
Feels Like 79
Clouds
Humidity
85%
Pressure
29.97"
Wind
8.4 mph (SW)
Dew Point
73°F
UV Index
4/10 (Moderate)
Visibility
6 mi

Hourly Forecast

Date & Time Wed, Jul 17
9:00 AM
Wed, Jul 17
10:00 AM
Wed, Jul 17
11:00 AM
Wed, Jul 17
12:00 PM
Wed, Jul 17
1:00 PM
Wed, Jul 17
2:00 PM
Wed, Jul 17
3:00 PM
Wed, Jul 17
4:00 PM
Wed, Jul 17
5:00 PM
Wed, Jul 17
6:00 PM
Wed, Jul 17
7:00 PM
Wed, Jul 17
8:00 PM
Wed, Jul 17
9:00 PM
Wed, Jul 17
10:00 PM
Wed, Jul 17
11:00 PM
Thu, Jul 18
12:00 AM
Thu, Jul 18
1:00 AM
Thu, Jul 18
2:00 AM
Thu, Jul 18
3:00 AM
Thu, Jul 18
4:00 AM
Thu, Jul 18
5:00 AM
Thu, Jul 18
6:00 AM
Thu, Jul 18
7:00 AM
Thu, Jul 18
8:00 AM
Thu, Jul 18
9:00 AM
Thu, Jul 18
10:00 AM
Thu, Jul 18
11:00 AM
Thu, Jul 18
12:00 PM
Thu, Jul 18
1:00 PM
Thu, Jul 18
2:00 PM
Thu, Jul 18
3:00 PM
Thu, Jul 18
4:00 PM
Thu, Jul 18
5:00 PM
Thu, Jul 18
6:00 PM
Thu, Jul 18
7:00 PM
Thu, Jul 18
8:00 PM
Thu, Jul 18
9:00 PM
Thu, Jul 18
10:00 PM
Thu, Jul 18
11:00 PM
Fri, Jul 19
12:00 AM
Fri, Jul 19
1:00 AM
Fri, Jul 19
2:00 AM
Fri, Jul 19
3:00 AM
Fri, Jul 19
4:00 AM
Fri, Jul 19
5:00 AM
Fri, Jul 19
6:00 AM
Fri, Jul 19
7:00 AM
Fri, Jul 19
8:00 AM
Condition
Clouds

Clouds

Clouds

Clouds

Clouds

Clouds

Rain

Rain

Rain

Rain

Rain

Rain

Clouds

Clouds

Clouds

Rain

Rain

Rain

Rain

Rain

Rain

Rain

Rain

Rain

Rain

Rain

Rain

Rain

Rain

Rain

Rain

Rain

Rain

Rain

Rain

Rain

Rain

Clouds

Clouds

Clouds

Clouds

Clouds

Clear

Clouds

Clouds

Clouds

Clouds

Clouds
Temperature 77°F78°F78°F81°F84°F87°F90°F86°F84°F82°F78°F76°F74°F73°F72°F70°F69°F69°F68°F68°F68°F68°F67°F68°F69°F71°F71°F72°F75°F79°F77°F77°F78°F79°F80°F75°F70°F68°F67°F65°F64°F63°F62°F62°F61°F61°F61°F64°F
Feels Like 78°F79°F80°F85°F89°F91°F93°F90°F88°F86°F79°F77°F75°F74°F73°F71°F71°F70°F69°F69°F69°F69°F68°F69°F70°F72°F72°F73°F76°F79°F78°F78°F79°F79°F80°F75°F71°F68°F67°F66°F64°F63°F62°F62°F61°F61°F61°F64°F
Cloudiness 56%60%57%50%40%34%33%51%42%59%66%72%100%100%100%100%92%80%39%68%79%84%87%90%100%100%100%100%99%94%98%97%98%98%99%93%15%50%54%64%54%45%4%15%45%59%67%72%
Visibility 6 mi6 mi6 mi6 mi6 mi6 mi6 mi6 mi6 mi6 mi6 mi6 mi6 mi6 mi6 mi6 mi6 mi6 mi6 mi6 mi6 mi6 mi4 mi5 mi6 mi5 mi6 mi6 mi6 mi3 mi6 mi5 mi6 mi6 mi6 mi6 mi6 mi6 mi6 mi6 mi6 mi6 mi6 mi6 mi6 mi6 mi6 mi6 mi
Precipitation 1%0%0%0%0%10%67%74%73%92%100%100%0%0%0%100%100%100%100%100%100%100%100%100%100%100%100%100%100%100%100%100%100%100%100%100%47%28%16%4%1%0%0%0%0%0%0%0%
Humidity 86%85%80%73%63%54%48%57%60%64%80%86%90%92%93%95%96%96%96%96%97%98%98%99%97%92%92%89%79%72%79%80%74%65%64%77%81%84%83%82%83%83%85%88%88%86%86%81%
Dew Point 72°F73°F72°F71°F70°F69°F68°F69°F69°F69°F71°F72°F71°F71°F70°F69°F68°F68°F67°F67°F67°F67°F67°F68°F68°F69°F68°F68°F69°F69°F70°F70°F69°F67°F67°F67°F65°F63°F62°F60°F59°F58°F58°F58°F58°F57°F57°F58°F
Pressure 29.97"29.97"29.97"29.97"29.94"29.91"29.91"29.91"29.94"29.94"29.94"29.94"29.94"29.97"29.94"29.97"29.97"29.97"29.97"29.97"29.97"29.97"29.97"30"30"30"30"30"30"30"30"30"29.97"29.97"29.97"29.97"30"30"30.03"30.03"30.03"30.03"30.03"30.03"30.03"30.06"30.06"30.06"
Wind Speed 8.8 mph8.4 mph10.1 mph11.4 mph13.3 mph15.1 mph17.7 mph19 mph15.7 mph11.6 mph8.7 mph4.5 mph3.4 mph3.7 mph3 mph4.8 mph2.6 mph2.1 mph1.8 mph1.8 mph3.3 mph2.9 mph2.5 mph2.7 mph0.4 mph1.5 mph1.8 mph2.5 mph2.1 mph4.5 mph6.6 mph6.7 mph4.7 mph2.8 mph3.1 mph4.8 mph3.3 mph4.6 mph4.4 mph4.6 mph4.7 mph4.5 mph5 mph5.2 mph5.6 mph5.3 mph5.5 mph4.9 mph
Wind
Direction
218°
SW
233°
SW
233°
SW
236°
SW
248°
WSW
258°
WSW
275°
W
270°
W
267°
W
270°
W
270°
W
268°
W
254°
WSW
229°
SW
214°
SW
250°
WSW
277°
W
288°
WNW
278°
W
227°
SW
220°
SW
223°
SW
234°
SW
261°
W
315°
NW
329°
NNW
359°
N

N
360°
N
289°
WNW
303°
WNW
325°
NW
339°
NNW

N
358°
N
336°
NNW
343°
NNW
338°
NNW
12°
NNE
24°
NNE
16°
NNE
23°
NNE
23°
NNE
43°
NE
50°
NE
49°
NE
50°
NE
50°
NE

Daily Forecast

Date High Low Precip. Humidity
Today
Jul 17

Rain
90 °F
67 °F
100%
63%
Thursday
Jul 18

Rain
80 °F
67 °F
100%
79%
Friday
Jul 19

Rain
85 °F
61 °F
88%
51%
Saturday
Jul 20

Rain
79 °F
66 °F
100%
87%
Sunday
Jul 21

Rain
85 °F
66 °F
100%
66%
Monday
Jul 22

Rain
80 °F
67 °F
100%
84%
Tuesday
Jul 23

Rain
85 °F
67 °F
100%
56%
Wednesday
Jul 24

Rain
87 °F
69 °F
97%
50%
Thursday
Jul 25

Rain
88 °F
67 °F
87%
50%
Friday
Jul 26

Rain
86 °F
68 °F
100%
56%
Saturday
Jul 27

Rain
75 °F
67 °F
100%
85%
Sunday
Jul 28

Rain
81 °F
68 °F
100%
69%
Monday
Jul 29

Clouds
86 °F
66 °F
0%
57%
Tuesday
Jul 30

Rain
88 °F
71 °F
84%
64%
Wednesday
Jul 31

Rain
84 °F
71 °F
100%
71%
Thursday
Aug 1

Rain
81 °F
65 °F
100%
63%

Temperature 8-14 Day Outlook



Precipitation 8-14 Day Outlook






About Us
Contact Us
Site Map
Search Site
Advertise With Us
   
www.CherokeeLake.info
THE CHEROKEE LAKE WEBSITE

Copyright 2024, Lakes Online
Privacy    |    Legal